Location: Unspecified
(0.0000°N, 0.0000°E)
Time: 10:07:18
(UTC+02:00)

NOSS 3-3 (A) - Visible Passes

Search period start: 20 October 2014 00:00
Search period end: 29 October 2014 23:00
Orbit: 973 x 1240 km, 63.4° (Epoch: 11 October)

Date Brightness Start Highest point End Pass type
(mag) Time Alt. Az. Time Alt. Az. Time Alt. Az.
20 Oct 4.6 20:47:19 10° N 20:54:46 52° ENE 21:02:14 10° SE visible
20 Oct 6.6 22:40:15 10° WNW 22:45:33 20° WSW 22:50:52 10° SSW visible
21 Oct 5.2 20:03:41 10° N 20:10:09 29° ENE 20:16:38 10° SE visible
21 Oct 5.8 21:53:58 10° NW 22:00:55 36° WSW 22:07:51 10° S visible
22 Oct 4.9 21:08:40 10° NNW 21:16:18 65° WSW 21:23:57 10° SSE visible
23 Oct 4.5 20:24:01 10° NNW 20:31:43 74° ENE 20:39:26 10° SSE visible
23 Oct 7.2 22:19:21 10° W 22:22:35 13° WSW 22:25:50 10° SW visible
24 Oct 6.5 21:31:49 10° WNW 21:37:54 25° WSW 21:43:59 10° SSW visible
25 Oct 5.6 20:45:59 10° NW 20:53:16 45° WSW 21:00:34 10° S visible
26 Oct 7.2 05:37:53 10° SE 05:40:18 12° ESE 05:42:43 10° E visible
26 Oct 4.7 19:00:57 10° NNW 19:08:41 80° WSW 19:16:25 10° SSE visible
27 Oct 7.2 20:10:13 10° WNW 20:14:54 17° WSW 20:19:36 10° SSW visible
28 Oct 5.6 05:56:02 10° S 06:01:54 39° ESE 06:07:42 10° NE visible
28 Oct 6.5 19:23:35 10° NW 19:30:15 32° WSW 19:36:55 10° S visible
29 Oct 6.6 05:12:52 10° SSE 05:17:18 20° ESE 05:21:42 10° ENE visible
